Regional Weather Roundup
Issued by NWS Northern Indiana

Home | Current Version | Previous Version | Graphics & Text | Print | Product List | Glossary On
Versions: 1 2 3 4 5 6 7 8 9 10 11 12 13 14 15 16 17 18 19 20 21 22 23 24 25 26 27 28 29 30 31 32 33 34 35 36 37 38 39 40 41 42 43 44 45 46 47 48 49 50
000
ASUS43 KIWX 271610
RWRIWX

KIWX WEATHER ROUNDUP
NATIONAL WEATHER SERVICE NORTHERN INDIANA
1200 PM EDT SAT AUG 27 2016

NOTE: "FAIR" INDICATES FEW OR NO CLOUDS BELOW 12,000 FEET WITH NO
SIGNIFICANT WEATHER AND/OR OBSTRUCTIONS TO VISIBILITY.

* THESE STATIONS ARE NOT UNDER NWS QUALITY CONTROL. THEY ALSO MAY NOT
  REPORT WEATHER SUCH AS PRECIPITATION OR FOG.

INZ001>027-271700-
NORTHERN INDIANA

CITY           SKY/WX    TMP DP  RH WIND       PRES   REMARKS
GARY*          PTSUNNY   77  73  88 SE9       30.07S
VALPARAISO     PTSUNNY   76  71  85 SE8       30.09R
MICHIGAN CITY* CLOUDY    72  72 100 CALM      30.07F
LAPORTE*       CLOUDY   N/A N/A N/A SE9       30.09F
KNOX*          CLOUDY    72  64  78 SE7       30.08F
SOUTH BEND     CLOUDY    71  70  96 SE12      30.10F
ELKHART*       RAIN      68  68 100 E6        30.12F
GOSHEN         TSTM      70  67  90 E3        30.12F FOG
MONTICELLO*    CLOUDY    76  69  77 SE3       30.10F
LOGANSPORT*    CLOUDY    72  72 100 E6        30.12F
ROCHESTER*     CLOUDY    73  73 100 E7        30.12F
WARSAW*        RAIN      70  70 100 SE3       30.15R
ANGOLA*        PTSUNNY   72  64  78 NW5       30.15R
FORT WAYNE     CLOUDY    79  71  76 W15G25    30.12F
HUNTINGTON*    CLOUDY    74  70  85 W9        30.14R
PERU/GRISSOM   PTSUNNY   73  73 100 E5        30.12S
MARION*        LGT RAIN  75  70  85 CALM      30.15S

$$
INZ028>050-271700-
CENTRAL INDIANA

CITY           SKY/WX    TMP DP  RH WIND       PRES   REMARKS
LAFAYETTE      MOSUNNY   78  73  84 SE3       30.09F
KOKOMO*        CLOUDY    73  72  94 CALM      30.13F
MUNCIE*        CLOUDY    79  74  84 W7        30.14R
INDIANAPOLIS   LGT RAIN  75  71  87 SW5       30.15R

$$
MIZ043>046-050>051-056>058-064>065-071>073-077>080-271700-
SOUTHWEST LOWER MICHIGAN

CITY           SKY/WX    TMP DP  RH WIND       PRES   REMARKS
BATTLE CREEK   LGT RAIN  64  64 100 NE6       30.13F
BENTON HARBOR  MOSUNNY   73  69  87 SE14      30.07F
COLDWATER*     HVY RAIN  67  67  99 N5        30.14S
HILLSDALE*     PTSUNNY   76  66  70 CALM      30.13S
HOLLAND        CLOUDY    70  67  90 SE12      30.08F
GRAND RAPIDS   LGT RAIN  66  63  90 E13       30.11F FOG
KALAMAZOO      CLOUDY    68  64  87 VRB3      30.13R
STURGIS*       HVY RAIN  68  67  94 W7        30.15R
THREE RIVERS*  HVY RAIN  68  66  94 SE3       30.15R

$$
OHZ001>008-015>018-024>025-271700-
NORTHWEST OHIO

CITY           SKY/WX    TMP DP  RH WIND       PRES   REMARKS
WAUSEON*       FAIR      84  72  65 SE8       30.11F
DEFIANCE       SUNNY     84  71  65 VRB7      30.10F
FINDLAY        CLOUDY    87  70  56 S15       30.12F
TOLEDO EXPRESS PTSUNNY   82  69  64 VRB6      30.11F
TOLEDO METCALF MOSUNNY   83  70  64 SE8       30.13F
LIMA           PTSUNNY   84  75  74 S7        30.14S

$$
AND FOR LAKE MICHIGAN COASTAL AND OPEN LAKE BUOY OBSERVATIONS

STATION/POSITION TEMP    WIND        PRES    VSBY  WAVE
                 AIR SEA DIR/SP/G                  HT/PER
                 (F)     (DEG/KT/KT) (MB)    (MI)  (FT/S)
CALUMET HARBOR    71     100/  9/ 12 1017.2F
MICHIGAN CITY     71     110/  7/  9   N/A
BURNS HARBOR      74     110/ 10/ 14 1018.6F
SAINT JOSEPH      73     210/  2/  5 1017.9F
SOUTH LAKE BUOY   72 74  130/ 12/ 14 1016.8F         2/ 4
4 MI NW BRIDGMAN  72 75  120/ 14/ 17 1017.9F         1
MICHIGAN CITY     74 75  150/ 10/ 12   N/A           1/ 4

$$
&&




USA.gov is the U.S. government's official web portal to all federal, state and local government web resources and services.